| time (UTC) | temp F | wind direction | speed knots | gust knots | rain 1hr in | rain 24hr in | rain mn in | humidity % | barometer mb |
| 20260903232847 | 65 | 291 | 0.0 | 0.0 | 0.00 | 0.00 | 0.00 | 69 | 1017.9 |
| 20260903232349 | 66 | 291 | 0.0 | 0.0 | 0.00 | 0.00 | 0.00 | 68 | 1018.0 |
| 20260903231840 | 66 | 291 | 0.0 | 1.7 | 0.00 | 0.00 | 0.00 | 67 | 1018.1 |
| 20260903231342 | 66 | 292 | 0.0 | 1.7 | 0.00 | 0.00 | 0.00 | 66 | 1018.1 |
| 20260903230349 | 67 | 239 | 0.0 | 0.9 | 0.00 | 0.00 | 0.00 | 66 | 1018.2 |
| 20260903225837 | 67 | 240 | 0.0 | 0.9 | 0.00 | 0.00 | 0.00 | 65 | 1018.0 |
| 20260903225342 | 67 | 240 | 0.9 | 0.9 | 0.00 | 0.00 | 0.00 | 66 | 1018.0 |
| 20260903224324 | 67 | 285 | 0.0 | 0.9 | 0.00 | 0.00 | 0.00 | 64 | 1017.8 |
| 20260903223824 | 67 | 299 | 0.0 | 0.9 | 0.00 | 0.00 | 0.00 | 65 | 1017.9 |
| 20260903223327 | 67 | 299 | 0.0 | 1.7 | 0.00 | 0.00 | 0.00 | 65 | 1017.9 |
| 20260903222314 | 68 | 298 | 0.0 | 0.9 | 0.00 | 0.00 | 0.00 | 65 | 1017.8 |
| 20260903221812 | 68 | 299 | 0.0 | 0.9 | 0.00 | 0.00 | 0.00 | 64 | 1017.9 |
| 20260903221258 | 67 | 299 | 0.0 | 0.9 | 0.00 | 0.00 | 0.00 | 63 | 1017.9 |
| 20260903220757 | 68 | 299 | 0.0 | 0.0 | 0.00 | 0.00 | 0.00 | 64 | 1017.7 |
| 20260903220257 | 68 | 299 | 0.0 | 0.0 | 0.00 | 0.00 | 0.00 | 65 | 1017.6 |
| 20260903215745 | 68 | 299 | 0.0 | 0.9 | 0.00 | 0.00 | 0.00 | 63 | 1017.6 |
| 20260903215245 | 68 | 299 | 0.0 | 0.9 | 0.00 | 0.00 | 0.00 | 64 | 1017.6 |
| 20260903214233 | 69 | 301 | 0.0 | 0.9 | 0.00 | 0.00 | 0.00 | 65 | 1017.3 |
| 20260903213736 | 69 | 301 | 0.0 | 0.9 | 0.00 | 0.00 | 0.00 | 65 | 1017.3 |
| 20260903213233 | 69 | 300 | 0.0 | 0.0 | 0.00 | 0.00 | 0.00 | 65 | 1017.5 |
| 20260903212733 | 69 | 300 | 0.0 | 0.9 | 0.00 | 0.00 | 0.00 | 65 | 1017.6 |
| 20260903212222 | 69 | 305 | 0.0 | 0.9 | 0.00 | 0.00 | 0.00 | 65 | 1017.4 |
| 20260903211721 | 70 | 305 | 0.0 | 0.9 | 0.00 | 0.00 | 0.00 | 65 | 1017.4 |
| 20260903211216 | 70 | 305 | 0.0 | 0.9 | 0.00 | 0.00 | 0.00 | 65 | 1017.4 |
| 20260903210708 | 70 | 305 | 0.0 | 0.0 | 0.00 | 0.00 | 0.00 | 64 | 1017.4 |
| 20260903205200 | 71 | 305 | 0.0 | 0.9 | 0.00 | 0.00 | 0.00 | 63 | 1017.3 |
| 20260903204657 | 71 | 307 | 0.0 | 1.7 | 0.00 | 0.00 | 0.00 | 63 | 1017.1 |
| 20260903204152 | 72 | 309 | 0.0 | 2.6 | 0.00 | 0.00 | 0.00 | 63 | 1017.2 |
| 20260903203646 | 72 | 310 | 0.0 | 2.6 | 0.00 | 0.00 | 0.00 | 63 | 1017.0 |
| 20260903203145 | 71 | 310 | 0.9 | 1.7 | 0.00 | 0.00 | 0.00 | 64 | 1017.1 |
| 20260903202639 | 71 | 315 | 0.0 | 0.0 | 0.00 | 0.00 | 0.00 | 65 | 1017.1 |
| 20260903202132 | 71 | 315 | 0.0 | 0.0 | 0.00 | 0.00 | 0.00 | 64 | 1017.1 |
| 20260903201635 | 71 | 315 | 0.0 | 0.0 | 0.00 | 0.00 | 0.00 | 64 | 1017.0 |
| 20260903201133 | 72 | 315 | 0.0 | 0.0 | 0.00 | 0.00 | 0.00 | 63 | 1016.8 |
| 20260903200636 | 72 | 315 | 0.0 | 0.0 | 0.00 | 0.00 | 0.00 | 62 | 1016.9 |
| 20260903200138 | 73 | 315 | 0.0 | 0.0 | 0.00 | 0.00 | 0.00 | 62 | 1016.8 |
| 20260903195635 | 73 | 315 | 0.0 | 0.0 | 0.00 | 0.00 | 0.00 | 61 | 1017.0 |
| 20260903195135 | 74 | 315 | 0.0 | 0.0 | 0.00 | 0.00 | 0.00 | 60 | 1016.9 |
| 20260903194638 | 74 | 315 | 0.0 | 0.9 | 0.00 | 0.00 | 0.00 | 60 | 1016.8 |
| 20260903194134 | 74 | 315 | 0.0 | 0.9 | 0.00 | 0.00 | 0.00 | 59 | 1016.8 |
| 20260903192622 | 75 | 326 | 0.0 | 0.9 | 0.00 | 0.00 | 0.00 | 57 | 1017.0 |
| 20260903191622 | 77 | 324 | 0.0 | 0.9 | 0.00 | 0.00 | 0.00 | 56 | 1016.9 |
| 20260903191121 | 78 | 324 | 0.0 | 0.9 | 0.00 | 0.00 | 0.00 | 55 | 1016.8 |
| 20260903190623 | 78 | 324 | 0.0 | 0.9 | 0.00 | 0.00 | 0.00 | 53 | 1016.9 |
| 20260903190124 | 79 | 323 | 0.0 | 0.9 | 0.00 | 0.00 | 0.00 | 52 | 1016.8 |
| 20260903185624 | 80 | 323 | 0.0 | 0.9 | 0.00 | 0.00 | 0.00 | 50 | 1016.7 |
| 20260903184553 | 82 | 312 | 0.0 | 0.9 | 0.00 | 0.00 | 0.00 | 47 | 1016.5 |
| 20260903183551 | 84 | 312 | 0.0 | 1.7 | 0.00 | 0.00 | 0.00 | 44 | 1016.4 |
| 20260903181526 | 86 | 333 | 3.5 | 5.2 | 0.00 | 0.00 | 0.00 | 41 | 1016.0 |
| 20260903181021 | 86 | 318 | 0.9 | 5.2 | 0.00 | 0.00 | 0.00 | 40 | 1015.8 |
| 20260903180520 | 87 | 299 | 0.9 | 6.1 | 0.00 | 0.00 | 0.00 | 40 | 1015.9 |
| 20260903180023 | 87 | 315 | 1.7 | 6.1 | 0.00 | 0.00 | 0.00 | 39 | 1015.7 |
| 20260903175023 | 88 | 306 | 0.0 | 5.2 | 0.00 | 0.00 | 0.00 | 37 | 1015.8 |
| 20260903174526 | 88 | 312 | 0.0 | 6.1 | 0.00 | 0.00 | 0.00 | 36 | 1015.6 |
| 20260903174023 | 89 | 325 | 1.7 | 6.1 | 0.00 | 0.00 | 0.00 | 35 | 1015.6 |
| 20260903173524 | 89 | 308 | 3.5 | 6.1 | 0.00 | 0.00 | 0.00 | 35 | 1015.5 |
| 20260903173026 | 88 | 312 | 0.9 | 3.5 | 0.00 | 0.00 | 0.00 | 36 | 1015.7 |
| 20260903172524 | 89 | 296 | 0.0 | 3.5 | 0.00 | 0.00 | 0.00 | 36 | 1015.4 |
| 20260903172012 | 89 | 301 | 1.7 | 3.5 | 0.00 | 0.00 | 0.00 | 35 | 1015.4 |
| 20260903170945 | 89 | 313 | 0.9 | 3.5 | 0.00 | 0.00 | 0.00 | 35 | 1015.4 |
| 20260903170445 | 89 | 306 | 2.6 | 3.5 | 0.00 | 0.00 | 0.00 | 34 | 1015.3 |
| 20260903165954 | 90 | 281 | 0.0 | 6.1 | 0.00 | 0.00 | 0.00 | 34 | 1015.1 |
| 20260903165438 | 90 | 287 | 0.0 | 7.0 | 0.00 | 0.00 | 0.00 | 34 | 1015.1 |
| 20260903164934 | 90 | 317 | 0.9 | 7.0 | 0.00 | 0.00 | 0.00 | 33 | 1015.2 |
| 20260903164433 | 91 | 314 | 0.9 | 5.2 | 0.00 | 0.00 | 0.00 | 34 | 1015.1 |
| 20260903162936 | 91 | 304 | 0.9 | 5.2 | 0.00 | 0.00 | 0.00 | 32 | 1015.2 |
| 20260903162437 | 91 | 314 | 0.0 | 5.2 | 0.00 | 0.00 | 0.00 | 32 | 1015.4 |
| 20260903161937 | 91 | 297 | 2.6 | 5.2 | 0.00 | 0.00 | 0.00 | 31 | 1015.1 |
| 20260903161439 | 91 | 341 | 2.6 | 5.2 | 0.00 | 0.00 | 0.00 | 32 | 1015.2 |
| 20260903160934 | 92 | 305 | 0.0 | 3.5 | 0.00 | 0.00 | 0.00 | 32 | 1015.1 |
| 20260903160435 | 92 | 284 | 3.5 | 3.5 | 0.00 | 0.00 | 0.00 | 31 | 1015.2 |
| 20260903155924 | 92 | 308 | 0.9 | 3.5 | 0.00 | 0.00 | 0.00 | 31 | 1015.2 |
| 20260903155426 | 92 | 315 | 1.7 | 3.5 | 0.00 | 0.00 | 0.00 | 31 | 1015.2 |
| 20260903154922 | 92 | 305 | 1.7 | 3.5 | 0.00 | 0.00 | 0.00 | 31 | 1015.1 |
| 20260903154423 | 92 | 30 | 0.9 | 1.7 | 0.00 | 0.00 | 0.00 | 32 | 1015.0 |
| 20260903153924 | 92 | 105 | 0.0 | 1.7 | 0.00 | 0.00 | 0.00 | 31 | 1015.0 |
| 20260903153422 | 92 | 87 | 0.0 | 2.6 | 0.00 | 0.00 | 0.00 | 31 | 1015.1 |
| 20260903152924 | 92 | 352 | 0.9 | 3.5 | 0.00 | 0.00 | 0.00 | 31 | 1015.2 |
| 20260903152410 | 92 | 47 | 0.0 | 5.2 | 0.00 | 0.00 | 0.00 | 32 | 1015.3 |
| 20260903151907 | 92 | 91 | 0.9 | 7.0 | 0.00 | 0.00 | 0.00 | 30 | 1015.2 |
| 20260903151408 | 92 | 307 | 1.7 | 7.0 | 0.00 | 0.00 | 0.00 | 30 | 1015.0 |
| 20260903150855 | 92 | 331 | 4.3 | 6.1 | 0.00 | 0.00 | 0.00 | 30 | 1015.3 |
| 20260903150356 | 92 | 335 | 3.5 | 5.2 | 0.00 | 0.00 | 0.00 | 31 | 1015.4 |
| 20260903145856 | 93 | 306 | 0.0 | 5.2 | 0.00 | 0.00 | 0.00 | 32 | 1015.5 |
| 20260903145352 | 93 | 30 | 0.0 | 3.5 | 0.00 | 0.00 | 0.00 | 33 | 1015.4 |
| 20260903144346 | 92 | 330 | 1.7 | 7.0 | 0.00 | 0.00 | 0.00 | 32 | 1015.4 |
| 20260903143835 | 93 | 311 | 1.7 | 5.2 | 0.00 | 0.00 | 0.00 | 33 | 1015.4 |
| 20260903143335 | 92 | 100 | 0.0 | 6.1 | 0.00 | 0.00 | 0.00 | 33 | 1015.1 |
| 20260903142844 | 92 | 330 | 0.9 | 6.1 | 0.00 | 0.00 | 0.00 | 33 | 1015.3 |
| 20260903141832 | 93 | 314 | 1.7 | 9.6 | 0.00 | 0.00 | 0.00 | 33 | 1015.4 |
| 20260903141332 | 93 | 13 | 0.9 | 6.1 | 0.00 | 0.00 | 0.00 | 31 | 1015.3 |
| 20260903140832 | 94 | 313 | 1.7 | 6.1 | 0.00 | 0.00 | 0.00 | 31 | 1015.3 |
| 20260903140332 | 94 | 134 | 0.0 | 1.7 | 0.00 | 0.00 | 0.00 | 32 | 1015.3 |
| 20260903135834 | 94 | 158 | 0.0 | 0.9 | 0.00 | 0.00 | 0.00 | 31 | 1015.6 |
| 20260903135332 | 95 | 170 | 0.0 | 0.9 | 0.00 | 0.00 | 0.00 | 31 | 1015.3 |
| 20260903134332 | 96 | 127 | 0.0 | 0.9 | 0.00 | 0.00 | 0.00 | 30 | 1015.4 |
| 20260903133836 | 97 | 100 | 0.0 | 0.9 | 0.00 | 0.00 | 0.00 | 29 | 1015.6 |
| 20260903133331 | 97 | 250 | 0.0 | 0.9 | 0.00 | 0.00 | 0.00 | 30 | 1015.4 |
| 20260903132338 | 97 | 310 | 0.0 | 5.2 | 0.00 | 0.00 | 0.00 | 31 | 1015.6 |
| 20260903131831 | 98 | 218 | 0.9 | 1.7 | 0.00 | 0.00 | 0.00 | 29 | 1015.5 |
| 20260903131333 | 97 | 69 | 0.0 | 1.7 | 0.00 | 0.00 | 0.00 | 30 | 1015.5 |
| 20260903130833 | 96 | 295 | 0.9 | 7.0 | 0.00 | 0.00 | 0.00 | 31 | 1015.4 |
| 20260903125833 | 95 | 17 | 0.9 | 5.2 | 0.00 | 0.00 | 0.00 | 32 | 1015.7 |
| 20260903125335 | 94 | 343 | 0.9 | 7.0 | 0.00 | 0.00 | 0.00 | 33 | 1015.9 |
| 20260903124338 | 95 | 310 | 3.5 | 7.0 | 0.00 | 0.00 | 0.00 | 31 | 1015.8 |
| 20260903123832 | 96 | 55 | 0.0 | 5.2 | 0.00 | 0.00 | 0.00 | 32 | 1015.8 |
| 20260903123332 | 95 | 313 | 0.9 | 3.5 | 0.00 | 0.00 | 0.00 | 31 | 1015.9 |
| 20260903122838 | 96 | 308 | 0.0 | 3.5 | 0.00 | 0.00 | 0.00 | 32 | 1016.0 |
| 20260903122335 | 96 | 50 | 0.0 | 0.9 | 0.00 | 0.00 | 0.00 | 31 | 1015.9 |
| 20260903121837 | 94 | 12 | 0.0 | 1.7 | 0.00 | 0.00 | 0.00 | 34 | 1016.1 |
| 20260903121334 | 94 | 39 | 0.0 | 1.7 | 0.00 | 0.00 | 0.00 | 35 | 1016.0 |
| 20260903120836 | 93 | 336 | 0.0 | 2.6 | 0.00 | 0.00 | 0.00 | 36 | 1015.9 |
| 20260903120336 | 93 | 318 | 1.7 | 5.2 | 0.00 | 0.00 | 0.00 | 34 | 1016.0 |
| 20260903115838 | 94 | 296 | 1.7 | 5.2 | 0.00 | 0.00 | 0.00 | 34 | 1016.3 |
| 20260903115335 | 94 | 149 | 0.9 | 1.7 | 0.00 | 0.00 | 0.00 | 33 | 1016.2 |
| 20260903114335 | 94 | 121 | 0.9 | 1.7 | 0.00 | 0.00 | 0.00 | 33 | 1016.1 |
| 20260903113839 | 94 | 97 | 0.9 | 1.7 | 0.00 | 0.00 | 0.00 | 34 | 1016.2 |
| 20260903113335 | 95 | 149 | 0.9 | 0.9 | 0.00 | 0.00 | 0.00 | 33 | 1016.3 |
| 20260903112836 | 95 | 158 | 0.0 | 0.9 | 0.00 | 0.00 | 0.00 | 34 | 1016.4 |
| 20260903112328 | 94 | 232 | 0.0 | 1.7 | 0.00 | 0.00 | 0.00 | 34 | 1016.4 |
| 20260903111325 | 94 | 127 | 0.0 | 1.7 | 0.00 | 0.00 | 0.00 | 36 | 1016.6 |
| 20260903110822 | 94 | 153 | 0.0 | 0.9 | 0.00 | 0.00 | 0.00 | 35 | 1016.8 |
| 20260903110322 | 93 | 153 | 0.0 | 0.9 | 0.00 | 0.00 | 0.00 | 36 | 1016.8 |
| 20260903105823 | 93 | 228 | 0.9 | 0.9 | 0.00 | 0.00 | 0.00 | 35 | 1016.8 |
| 20260903105326 | 94 | 166 | 0.0 | 0.9 | 0.00 | 0.00 | 0.00 | 36 | 1017.1 |
| 20260903104822 | 94 | 220 | 0.9 | 0.9 | 0.00 | 0.00 | 0.00 | 37 | 1017.1 |
| 20260903104322 | 93 | 132 | 0.0 | 1.7 | 0.00 | 0.00 | 0.00 | 38 | 1017.1 |
| 20260903103823 | 92 | 132 | 0.0 | 1.7 | 0.00 | 0.00 | 0.00 | 39 | 1017.2 |
| 20260903103329 | 92 | 147 | 0.0 | 0.9 | 0.00 | 0.00 | 0.00 | 40 | 1017.4 |
| 20260903102822 | 91 | 152 | 0.0 | 1.7 | 0.00 | 0.00 | 0.00 | 44 | 1017.5 |
| 20260903102322 | 90 | 152 | 0.0 | 1.7 | 0.00 | 0.00 | 0.00 | 45 | 1017.3 |
| 20260903101822 | 92 | 142 | 0.9 | 0.9 | 0.00 | 0.00 | 0.00 | 42 | 1017.5 |
| 20260903101322 | 91 | 131 | 0.0 | 0.9 | 0.00 | 0.00 | 0.00 | 42 | 1017.5 |
| 20260903100822 | 88 | 131 | 0.0 | 0.9 | 0.00 | 0.00 | 0.00 | 45 | 1017.7 |
| 20260903100319 | 88 | 133 | 0.9 | 1.7 | 0.00 | 0.00 | 0.00 | 49 | 1017.7 |
| 20260903095820 | 88 | 93 | 0.9 | 0.9 | 0.00 | 0.00 | 0.00 | 46 | 1017.8 |
| 20260903095319 | 88 | 24 | 0.0 | 0.9 | 0.00 | 0.00 | 0.00 | 47 | 1017.6 |
| 20260903094821 | 87 | 340 | 0.0 | 1.7 | 0.00 | 0.00 | 0.00 | 49 | 1017.7 |
| 20260903094319 | 86 | 296 | 0.9 | 3.5 | 0.00 | 0.00 | 0.00 | 50 | 1017.6 |
| 20260903093819 | 86 | 315 | 0.9 | 3.5 | 0.00 | 0.00 | 0.00 | 51 | 1017.8 |
| 20260903093322 | 86 | 305 | 0.0 | 2.6 | 0.00 | 0.00 | 0.00 | 50 | 1017.8 |
| 20260903092825 | 86 | 148 | 0.0 | 5.2 | 0.00 | 0.00 | 0.00 | 50 | 1017.6 |
| 20260903091823 | 85 | 310 | 0.0 | 2.6 | 0.00 | 0.00 | 0.00 | 49 | 1017.7 |
| 20260903091324 | 84 | 316 | 0.9 | 2.6 | 0.00 | 0.00 | 0.00 | 53 | 1018.0 |
| 20260903090826 | 85 | 34 | 0.0 | 0.9 | 0.00 | 0.00 | 0.00 | 50 | 1018.1 |
| 20260903090324 | 85 | 297 | 0.0 | 2.6 | 0.00 | 0.00 | 0.00 | 49 | 1018.0 |
| 20260903085823 | 83 | 303 | 0.0 | 2.6 | 0.00 | 0.00 | 0.00 | 52 | 1017.9 |
| 20260903085323 | 83 | 288 | 0.0 | 0.9 | 0.00 | 0.00 | 0.00 | 56 | 1018.1 |
| 20260903084829 | 83 | 358 | 0.0 | 0.0 | 0.00 | 0.00 | 0.00 | 58 | 1018.0 |
| 20260903083823 | 82 | 14 | 0.0 | 1.7 | 0.00 | 0.00 | 0.00 | 57 | 1018.1 |
| 20260903083322 | 82 | 310 | 0.0 | 0.0 | 0.00 | 0.00 | 0.00 | 58 | 1018.0 |
| 20260903082824 | 81 | 309 | 0.0 | 1.7 | 0.00 | 0.00 | 0.00 | 61 | 1017.8 |
| 20260903082323 | 81 | 309 | 0.0 | 1.7 | 0.00 | 0.00 | 0.00 | 61 | 1018.0 |
| 20260903080824 | 80 | 38 | 0.0 | 0.0 | 0.00 | 0.00 | 0.00 | 59 | 1017.9 |
| 20260903080320 | 80 | 38 | 0.0 | 0.0 | 0.00 | 0.00 | 0.00 | 60 | 1017.9 |
| 20260903075322 | 79 | 33 | 0.0 | 0.0 | 0.00 | 0.00 | 0.00 | 61 | 1018.2 |
| 20260903074820 | 78 | 32 | 0.0 | 0.0 | 0.00 | 0.00 | 0.00 | 64 | 1018.0 |
| 20260903074324 | 77 | 25 | 0.0 | 0.0 | 0.00 | 0.00 | 0.00 | 62 | 1018.0 |
| 20260903073819 | 77 | 4 | 0.0 | 0.0 | 0.00 | 0.00 | 0.00 | 63 | 1017.9 |
| 20260903073320 | 77 | 4 | 0.0 | 0.0 | 0.00 | 0.00 | 0.00 | 63 | 1018.1 |
| 20260903072823 | 75 | 352 | 0.0 | 0.0 | 0.00 | 0.00 | 0.00 | 65 | 1018.1 |
| 20260903072326 | 74 | 352 | 0.0 | 0.0 | 0.00 | 0.00 | 0.00 | 69 | 1018.1 |
| 20260903071823 | 73 | 352 | 0.0 | 0.0 | 0.00 | 0.00 | 0.00 | 70 | 1018.0 |
| 20260903071323 | 72 | 352 | 0.0 | 0.0 | 0.00 | 0.00 | 0.00 | 72 | 1018.1 |
| 20260903070820 | 73 | 352 | 0.0 | 0.0 | 0.00 | 0.00 | 0.00 | 70 | 1017.9 |
| 20260903070326 | 73 | 352 | 0.0 | 0.0 | 0.00 | 0.00 | 0.00 | 71 | 1018.0 |
| 20260903065819 | 71 | 352 | 0.0 | 0.0 | 0.00 | 0.00 | 0.00 | 71 | 1018.0 |
| 20260903064823 | 70 | 352 | 0.0 | 0.0 | 0.00 | 0.00 | 0.00 | 73 | 1018.2 |
| 20260903064323 | 70 | 352 | 0.0 | 0.0 | 0.00 | 0.00 | 0.00 | 74 | 1018.2 |
| 20260903063819 | 69 | 352 | 0.0 | 0.0 | 0.00 | 0.00 | 0.00 | 74 | 1018.1 |
| 20260903062808 | 68 | 351 | 0.0 | 0.0 | 0.00 | 0.00 | 0.00 | 78 | 1018.4 |
| 20260903062308 | 68 | 351 | 0.0 | 0.0 | 0.00 | 0.00 | 0.00 | 78 | 1018.2 |
| 20260903061807 | 68 | 351 | 0.0 | 0.0 | 0.00 | 0.00 | 0.00 | 77 | 1018.1 |
| 20260903060756 | 66 | 352 | 0.0 | 0.0 | 0.00 | 0.00 | 0.00 | 81 | 1018.1 |
| 20260903060257 | 65 | 351 | 0.0 | 0.0 | 0.00 | 0.00 | 0.00 | 84 | 1018.2 |
| 20260903055256 | 63 | 350 | 0.0 | 0.0 | 0.00 | 0.00 | 0.00 | 85 | 1018.1 |
| 20260903054755 | 63 | 350 | 0.0 | 0.0 | 0.00 | 0.00 | 0.00 | 87 | 1018.1 |
| 20260903054255 | 62 | 346 | 0.0 | 0.0 | 0.00 | 0.00 | 0.00 | 90 | 1018.0 |
| 20260903053750 | 61 | 346 | 0.0 | 0.0 | 0.00 | 0.00 | 0.00 | 90 | 1017.9 |
| 20260903053244 | 60 | 346 | 0.0 | 0.0 | 0.00 | 0.00 | 0.00 | 90 | 1017.8 |
| 20260903052744 | 60 | 346 | 0.0 | 0.0 | 0.00 | 0.00 | 0.00 | 90 | 1017.8 |
| 20260903052241 | 60 | 346 | 0.0 | 0.0 | 0.00 | 0.00 | 0.00 | 90 | 1017.6 |
| 20260903051736 | 60 | 346 | 0.0 | 0.0 | 0.00 | 0.00 | 0.00 | 90 | 1017.9 |
| 20260903051238 | 60 | 346 | 0.0 | 0.0 | 0.00 | 0.00 | 0.00 | 90 | 1017.9 |
| 20260903050732 | 60 | 346 | 0.0 | 0.0 | 0.00 | 0.00 | 0.00 | 91 | 1017.7 |
| 20260903050235 | 60 | 346 | 0.0 | 0.0 | 0.00 | 0.00 | 0.00 | 90 | 1017.7 |
| 20260903045731 | 60 | 346 | 0.0 | 0.0 | 0.00 | 0.00 | 0.00 | 90 | 1017.5 |
| 20260903044732 | 60 | 345 | 0.0 | 0.0 | 0.00 | 0.00 | 0.00 | 90 | 1017.6 |
| 20260903043731 | 60 | 345 | 0.0 | 0.0 | 0.00 | 0.00 | 0.00 | 90 | 1017.4 |
| 20260903043232 | 60 | 345 | 0.0 | 0.9 | 0.00 | 0.00 | 0.00 | 89 | 1017.4 |
| 20260903042233 | 60 | 340 | 0.0 | 0.0 | 0.00 | 0.00 | 0.00 | 89 | 1017.3 |
| 20260903041736 | 60 | 339 | 0.0 | 0.0 | 0.00 | 0.00 | 0.00 | 89 | 1017.5 |
| 20260903040734 | 61 | 339 | 0.0 | 0.0 | 0.00 | 0.00 | 0.00 | 88 | 1017.4 |
| 20260903040234 | 61 | 338 | 0.0 | 0.0 | 0.00 | 0.00 | 0.00 | 88 | 1017.4 |
| 20260903035736 | 61 | 338 | 0.0 | 0.0 | 0.00 | 0.00 | 0.00 | 88 | 1017.5 |
| 20260903035232 | 61 | 340 | 0.0 | 0.0 | 0.00 | 0.00 | 0.00 | 87 | 1017.5 |
| 20260903034232 | 61 | 340 | 0.0 | 0.9 | 0.00 | 0.00 | 0.00 | 88 | 1017.5 |
| 20260903033738 | 61 | 341 | 0.0 | 0.9 | 0.00 | 0.00 | 0.00 | 89 | 1017.7 |
| 20260903033232 | 61 | 341 | 0.0 | 0.0 | 0.00 | 0.00 | 0.00 | 88 | 1017.4 |
| 20260903032731 | 61 | 341 | 0.0 | 0.0 | 0.00 | 0.00 | 0.00 | 87 | 1017.6 |
| 20260903031735 | 62 | 341 | 0.0 | 0.0 | 0.00 | 0.00 | 0.00 | 87 | 1017.6 |
| 20260903031237 | 62 | 341 | 0.0 | 0.0 | 0.00 | 0.00 | 0.00 | 87 | 1017.6 |
| 20260903030730 | 62 | 341 | 0.0 | 0.9 | 0.00 | 0.00 | 0.00 | 87 | 1017.6 |
| 20260903030222 | 62 | 341 | 0.0 | 0.9 | 0.00 | 0.00 | 0.00 | 87 | 1017.5 |
| 20260903025218 | 62 | 342 | 0.0 | 0.0 | 0.00 | 0.00 | 0.00 | 86 | 1017.6 |
| 20260903024715 | 62 | 342 | 0.0 | 0.0 | 0.00 | 0.00 | 0.00 | 86 | 1017.6 |
| 20260903024211 | 62 | 342 | 0.0 | 0.0 | 0.00 | 0.00 | 0.00 | 86 | 1017.7 |
| 20260903023158 | 62 | 342 | 0.0 | 0.0 | 0.00 | 0.00 | 0.00 | 86 | 1017.8 |
| 20260903022632 | 62 | 342 | 0.0 | 0.0 | 0.00 | 0.00 | 0.00 | 86 | 1017.6 |
| 20260903022134 | 63 | 342 | 0.0 | 0.0 | 0.00 | 0.00 | 0.00 | 86 | 1017.6 |
| 20260903021140 | 62 | 342 | 0.0 | 0.0 | 0.00 | 0.00 | 0.00 | 86 | 1017.7 |
| 20260903020634 | 63 | 342 | 0.0 | 0.0 | 0.00 | 0.00 | 0.00 | 85 | 1017.6 |
| 20260903020135 | 63 | 342 | 0.0 | 0.0 | 0.00 | 0.00 | 0.00 | 85 | 1017.7 |
| 20260903015638 | 63 | 342 | 0.0 | 0.0 | 0.00 | 0.00 | 0.00 | 85 | 1017.5 |
| 20260903015129 | 63 | 341 | 0.0 | 0.0 | 0.00 | 0.00 | 0.00 | 85 | 1017.6 |
| 20260903014622 | 63 | 341 | 0.0 | 0.0 | 0.00 | 0.00 | 0.00 | 85 | 1017.6 |
| 20260903014126 | 63 | 342 | 0.0 | 0.0 | 0.00 | 0.00 | 0.00 | 85 | 1017.4 |
| 20260903013620 | 63 | 342 | 0.0 | 0.0 | 0.00 | 0.00 | 0.00 | 84 | 1017.4 |
| 20260903013123 | 63 | 341 | 0.0 | 0.0 | 0.00 | 0.00 | 0.00 | 84 | 1017.5 |
| 20260903012125 | 63 | 341 | 0.0 | 0.0 | 0.00 | 0.00 | 0.00 | 85 | 1017.3 |
| 20260903011620 | 64 | 342 | 0.0 | 0.0 | 0.00 | 0.00 | 0.00 | 85 | 1017.4 |
| 20260903011122 | 64 | 342 | 0.0 | 0.0 | 0.00 | 0.00 | 0.00 | 84 | 1017.2 |
| 20260903010629 | 64 | 342 | 0.0 | 0.0 | 0.00 | 0.00 | 0.00 | 84 | 1017.3 |
| 20260903005620 | 64 | 342 | 0.0 | 0.0 | 0.00 | 0.00 | 0.00 | 84 | 1017.4 |
| 20260903005122 | 64 | 342 | 0.0 | 0.0 | 0.00 | 0.00 | 0.00 | 84 | 1017.3 |
| 20260903004104 | 64 | 342 | 0.0 | 0.0 | 0.00 | 0.00 | 0.00 | 83 | 1017.4 |
| 20260903003602 | 64 | 342 | 0.0 | 0.0 | 0.00 | 0.00 | 0.00 | 82 | 1017.3 |
| 20260903003039 | 65 | 342 | 0.0 | 0.0 | 0.00 | 0.00 | 0.00 | 82 | 1017.3 |
| 20260903002533 | 65 | 342 | 0.0 | 0.0 | 0.00 | 0.00 | 0.00 | 81 | 1017.2 |
| 20260903002035 | 65 | 342 | 0.0 | 0.0 | 0.00 | 0.00 | 0.00 | 81 | 1017.5 |
| 20260903001032 | 66 | 342 | 0.0 | 0.0 | 0.00 | 0.00 | 0.00 | 79 | 1017.5 |
| 20260903000539 | 66 | 342 | 0.0 | 0.0 | 0.00 | 0.00 | 0.00 | 78 | 1017.5 |
| 20260903000030 | 66 | 341 | 0.0 | 0.0 | 0.00 | 0.00 | 0.00 | 77 | 1017.5 |
| 20260902235524 | 67 | 341 | 0.0 | 0.0 | 0.00 | 0.00 | 0.00 | 77 | 1017.5 |
| 20260902235018 | 67 | 341 | 0.0 | 0.0 | 0.00 | 0.00 | 0.00 | 76 | 1017.5 |
| 20260902234519 | 67 | 341 | 0.0 | 0.9 | 0.00 | 0.00 | 0.00 | 76 | 1017.5 |
| 20260902234015 | 67 | 341 | 0.0 | 0.9 | 0.00 | 0.00 | 0.00 | 75 | 1017.6 |